Simultaneous Nadir Overpasses (SNOs) Predictions

Prediction of SNOs between AURA and NPP Satellite Orbit:

Table of predicted SNOs for the next 14.0 days since TLE Epoch: 2/24/2024
Index Date (AURA) Time (AURA) Lat,Lon (AURA) SZA (AURA ) Date (NPP) Time (NPP) Lat,Lon (NPP) SZA (NPP ) Distance(km) Time Diff (sec)
1 02/26/2024 16:41:56 80.36,-165.11 99.92 02/26/2024 16:41:47 80.36,-164.98 99.91 2.41 9
2 02/26/2024 17:31:19 -80.42, 3.16 80.20 02/26/2024 17:32:30 -80.42, 3.05 80.23 2.13 71
3 02/29/2024 06:27:20 -80.29, 167.93 80.94 02/29/2024 06:26:28 -80.30, 168.09 80.94 3.21 52
4 02/29/2024 07:16:41 80.37, -23.66 98.91 02/29/2024 07:17:10 80.37, -23.78 98.91 2.41 29
5 03/02/2024 21:02:04 -80.30, -50.66 81.96 03/02/2024 21:01:51 -80.30, -50.74 81.94 1.49 13
6 03/02/2024 21:51:23 80.44, 118.35 97.79 03/02/2024 21:52:30 80.44, 118.35 97.74 0.13 67
7 03/05/2024 10:47:23 80.26, -77.35 97.11 03/05/2024 10:46:30 80.26, -77.37 97.15 0.28 53
8 03/05/2024 11:36:44 -80.40, 91.60 83.14 03/05/2024 11:37:10 -80.40, 91.65 83.17 0.94 26
9 03/08/2024 01:22:01 80.35, 64.81 95.93 03/08/2024 01:21:48 80.36, 64.96 95.91 2.88 13



Historial Predications of SNOs between AURA and NPP
